CZ-6A DEB, 60976

Orbit data source: Space-Track

CZ-6A DEB, 60976 is space debris in LEO originally from a launch on Tue, 06 Aug 2024 UTC launched from the Taiyaun Space Center, China (TSC). Debris objects in space refer to the collection of defunct objects orbiting the Earth. Examples of debris include non-operational satellites, rocket bodies, and fragments generated from explosions, collisions, or faulty payload assembly.

Loading next visibility...
Identifier
60976, 2024-140MB
Orbit
LEO
Country
Flag of CNCN / PRC
Related business
Manufacturer
SAST
Mission
Spacecraft
Bus & Motor
Unknown
Mass
Unknown
Launch date (UTC)
2024-08-06 (2 years ago)
Launch vehicle
Unknown
Launch site
Taiyaun Space Center, China (TSC)
Object type
Payload
Rocket body
Debris
Shape & HBR
Unknown shape, 0.1 m
Radar Cross Section
Medium (>0.1 m² and <1 m²)

Expand to show TLE details & history
Last TLE update: 13 hours ago

TLE from 13 hours ago
0 CZ-6A DEB
1 60976U 24140MB  26171.29757256  .00022113  00000-0  36971-2 0  9996
2 60976  88.9388 266.2615 0028096 327.9714  31.9795 14.69504781 97195
Epoch: 2026-06-20T07:08Z
TLE epoch observation values (Epoch: 2026-06-20T07:08:30.269Z)
Latitude
0.00002°
Longitude
-109.37883°
Altitude
649.005 km
Speed
7.542 km/s
True Right ascension
17h 45m 02s
True Declination
0° 00' 00"
Sunlit
Object was in full shadow at epoch
Visualization orbit readout
Latitude
Unknown
Longitude
Unknown
Altitude
Unknown
Speed
Unknown
Apparent Right ascension
Unknown
Apparent Declination
Unknown
Sunlit
N/A
Visualization observer readout
Local Sidereal Time
07:12:20
Azimuth
Unknown
Elevation
Unknown
Doppler factor
Unknown
Orbital elements
Apogee altitude
679.303 km
Perigee altitude
639.757 km
Semi-major axis
7,037.667 km
Eccentricity
0.00281
Inclination
88.9388°
RAAN
266.2615°
Arg. of periapsis
327.9714°
True anomaly
32.15052°
Mean anomaly
31.9795°
Eccentric anomaly
32.06496°
Mean motion
3.67621 °/min
Orbital period
97.93 mins
BSTAR
0.0036971
Loading maneuver chart data...
Computing Atmospheric mass density...
Loading historical data...
Loading historical data...
Loading historical data...
Loading historical data...
Loading historical data...
Loading historical data...
Loading historical data...

Documentation

Showing up to 5 results
|